Weather History for Springfield, VT

Change the Weather History Date:

Thursday, September 5, 2013

  Actual Average Record
Temperature  
Mean Temperature 57 °F 63 °F  
Max Temperature 69 °F 75 °F 86 °F (2008)
Min Temperature 44 °F 52 °F 36 °F (2000)
Degree Days  
Heating Degree Days 8 3  
Month to date heating degree days 8 14  
Since 1 July heating degree days 53 69  
Cooling Degree Days 0 2  
Month to date cooling degree days 21 10  
Year to date cooling degree days 474 331  
Growing Degree Days 7 (Base 50)    
Moisture  
Dew Point 47 °F    
Average Humidity 65    
Maximum Humidity 97    
Minimum Humidity 32    
Precipitation  
Precipitation 0.01 in 0.09 in 1.36 in (2011)
Month to date precipitation 1.13 0.45  
Year to date precipitation 28.61 28.82  
Sea Level Pressure  
Sea Level Pressure 30.01 in    
Wind  
Wind Speed 4 mph (NNW)    
Max Wind Speed 15 mph    
Max Gust Speed 22 mph    
Visibility 10 miles    
Events Rain    
T = Trace of Precipitation, MM = Missing Value Source: NWS Daily Summary

Daily Weather History Graph

Daily Weather History Graph

Search for Another Location

Airport:

Trip Planner

Search our weather history database for the weather conditions in past years. The results will help you decide how hot, cold, wet, or windy it might be!

Date:

Astronomy

Sep. 05, 2013 Rise Set
Actual Time 6:18 AM EDT 7:17 PM EDT
Civil Twilight 5:49 AM EDT 7:46 PM EDT
Nautical Twilight 5:14 AM EDT 8:21 PM EDT
Astronomical Twilight 4:38 AM EDT 8:57 PM EDT
Moon 6:29 AM EDT (9/5) 7:05 PM EDT (9/5)
Length of Visible Light 13h 57m
Length of Day
12h 59m
New Moon, 0% of the Moon is Illuminated
Sep 5
New Moon
Sep 12
First Quarter
Sep 19
Full
Sep 26
Last Quarter
Oct 4
New

Hourly Weather History & Observations

Time (EDT) Temp. Dew Point Humidity Pressure Visibility Wind Dir Wind Speed Gust Speed Precip Events Conditions
12:54 AM 62.1 °F 55.9 °F 80% 29.88 in 10.0 mi Calm Calm - N/A   Overcast
1:54 AM 61.0 °F 57.0 °F 87% 29.89 in 10.0 mi Calm Calm - 0.00 in Rain Light Rain
2:54 AM 61.0 °F 57.9 °F 90% 29.88 in 10.0 mi West 4.6 mph - 0.01 in   Overcast
3:54 AM 60.1 °F 59.0 °F 96% 29.89 in 10.0 mi Calm Calm - N/A   Mostly Cloudy
4:54 AM 60.1 °F 59.0 °F 96% 29.90 in 10.0 mi North 3.5 mph - N/A   Overcast
5:54 AM 60.1 °F 57.9 °F 93% 29.90 in 10.0 mi ENE 3.5 mph - N/A   Overcast
6:23 AM 60.8 °F 57.2 °F 88% 29.93 in 10.0 mi Calm Calm - N/A   Overcast
6:54 AM 60.1 °F 55.9 °F 86% 29.95 in 10.0 mi Variable 3.5 mph - N/A   Mostly Cloudy
7:13 AM 60.8 °F 55.4 °F 82% 29.96 in 10.0 mi Variable 5.8 mph - N/A   Overcast
7:20 AM 59.0 °F 53.6 °F 82% 29.97 in 10.0 mi NNE 3.5 mph - N/A   Mostly Cloudy
7:54 AM 59.0 °F 52.0 °F 78% 29.99 in 10.0 mi North 6.9 mph - N/A   Mostly Cloudy
8:54 AM 57.9 °F 48.9 °F 72% 30.00 in 10.0 mi Variable 3.5 mph - N/A   Mostly Cloudy
9:54 AM 59.0 °F 48.0 °F 67% 30.01 in 10.0 mi NNE 4.6 mph - N/A   Clear
10:54 AM 63.0 °F 45.0 °F 52% 30.01 in 10.0 mi Variable 3.5 mph - N/A   Clear
11:54 AM 64.9 °F 43.0 °F 45% 30.01 in 10.0 mi Variable 4.6 mph - N/A   Clear
12:54 PM 64.9 °F 37.9 °F 37% 30.01 in 10.0 mi WNW 10.4 mph - N/A   Partly Cloudy
1:54 PM 66.9 °F 35.1 °F 31% 30.02 in 10.0 mi NW 10.4 mph 21.9 mph N/A   Partly Cloudy
2:54 PM 64.9 °F 36.0 °F 34% 30.03 in 10.0 mi NNW 9.2 mph 16.1 mph N/A   Scattered Clouds
3:54 PM 66.0 °F 36.0 °F 33% 30.04 in 10.0 mi NW 10.4 mph 17.3 mph N/A   Overcast
4:54 PM 66.0 °F 37.9 °F 36% 30.05 in 10.0 mi NW 11.5 mph - N/A   Mostly Cloudy
5:54 PM 64.0 °F 37.9 °F 38% 30.07 in 10.0 mi NW 8.1 mph 16.1 mph N/A   Scattered Clouds
6:54 PM 61.0 °F 37.9 °F 42% 30.08 in 10.0 mi NW 4.6 mph - N/A   Clear
7:54 PM 55.9 °F 42.1 °F 60% 30.11 in 10.0 mi Calm Calm - N/A   Clear
8:54 PM 50.0 °F 44.1 °F 80% 30.14 in 10.0 mi Calm Calm - N/A   Mostly Cloudy
9:54 PM 51.1 °F 43.0 °F 74% 30.17 in 10.0 mi Calm Calm - N/A   Clear
10:54 PM 48.0 °F 45.0 °F 89% 30.19 in 10.0 mi Calm Calm - N/A   Clear
11:54 PM 45.0 °F 43.0 °F 93% 30.19 in 10.0 mi Calm Calm - N/A   Clear